Tracking 34408 objects as of 14-Jun-2026
HD Live streaming from Space Station
objects crossing your sky now

THORAD AGENA D DEB

Track THORAD AGENA D DEB now!
10-day predictions


NORAD ID: 20360
Int'l Code: 1970-025QF
Perigee: 828.7 km
Apogee: 852.0 km
Inclination: 100.4 °
Period: 101.6 minutes
Semi major axis: 7211 km
RCS: 0.0096 m2 (small)
Launch date: April 8, 1970
Source: United States (US)
Launch site: AIR FORCE WESTERN TEST RANGE (AFWTR)

Note: This is SATELLITE DEBRIS
Your satellite tracking list
Your tracking list is empty




NASA's NSSDC Master Catalog

Two Line Element Set (TLE):
1 20360U 70025QF  26163.13305083  .00007466  00000-0  36873-2 0  9998
2 20360 100.4254 120.0918 0016108 249.5801 122.3258 14.17679737831776
Source of the keplerian elements: AFSPC